This is the latest recevied weather packets stored in our database for station/object 9M2EVR-2. If no packets are shown the sender has not sent any weather packets the latest 10 day(s).
| Time | Temp. | Humidity | Pressure | Rain* | Wind** | Luminosity | Snow |
|---|---|---|---|---|---|---|---|
| 1777509115 | 38.89° C | 47% | 1007.5 hPa | - | - | - | - |
| 1777508214 | 38.33° C | 48% | 1007.4 hPa | - | - | - | - |
| 1777507314 | 38.33° C | 48% | 1007.2 hPa | - | - | - | - |
| 1777506413 | 37.78° C | 48% | 1007.3 hPa | - | - | - | - |
| 1777505512 | 37.78° C | 48% | 1007.1 hPa | - | - | - | - |
| 1777504611 | 37.78° C | 48% | 1007 hPa | - | - | - | - |
| 1777503710 | 37.78° C | 48% | 1007.2 hPa | - | - | - | - |
| 1777502809 | 37.78° C | 48% | 1006.8 hPa | - | - | - | - |
| 1777501909 | 37.78° C | 48% | 1006.7 hPa | - | - | - | - |
| 1777501008 | 37.78° C | 47% | 1006.6 hPa | - | - | - | - |
| 1777500107 | 37.78° C | 47% | 1006.5 hPa | - | - | - | - |
| 1777499206 | 37.78° C | 47% | 1006.3 hPa | - | - | - | - |
| 1777498306 | 37.78° C | 47% | 1006.2 hPa | - | - | - | - |
| 1777497404 | 37.78° C | 47% | 1006.1 hPa | - | - | - | - |
| 1777496503 | 38.33° C | 47% | 1006 hPa | - | - | - | - |
| 1777495602 | 38.33° C | 46% | 1006 hPa | - | - | - | - |
| 1777494701 | 38.33° C | 46% | 1005.9 hPa | - | - | - | - |
| 1777493800 | 38.89° C | 45% | 1006.1 hPa | - | - | - | - |
| 1777492900 | 39.44° C | 44% | 1006.4 hPa | - | - | - | - |
| 1777491999 | 41.11° C | 42% | 1006.7 hPa | - | - | - | - |
| 1777491098 | 41.67° C | 41% | 1006.7 hPa | - | - | - | - |
| 1777490197 | 41.67° C | 40% | 1006.8 hPa | - | - | - | - |
| 1777489296 | 42.78° C | 39% | 1006.8 hPa | - | - | - | - |
| 1777488396 | 43.33° C | 37% | 1006.7 hPa | - | - | - | - |
| 1777487495 | 44.44° C | 37% | 1006.8 hPa | - | - | - | - |
* Rain since midnight (hover to see other rain measurements)
** Current wind speed in m/s (hover to see current wind gust speed)